Change the Weather History Date:

Wednesday, September 18, 2013

  Actual Average Record
Temperature  
Mean Temperature 68 °F 61 °F  
Max Temperature 75 °F 71 °F 93 °F (1891)
Min Temperature 60 °F 51 °F 32 °F (1929)
Degree Days  
Heating Degree Days 0 6  
Month to date heating degree days 33 60  
Since 1 July heating degree days 41 79  
Cooling Degree Days 3 2  
Month to date cooling degree days 107 54  
Year to date cooling degree days 956 735  
Growing Degree Days 15 (Base 50)    
Moisture  
Dew Point 64 °F    
Average Humidity 90    
Maximum Humidity 100    
Minimum Humidity 79    
Precipitation  
Precipitation 0.14 in 0.10 in 3.75 in (1905)
Month to date precipitation 0.99 1.89  
Year to date precipitation 27.43 24.06  
Snow  
Snow 0.00 in 0.00 in 0.00 in ()
Month to date snowfall 0.0 0.0  
Since 1 July snowfall T 0.0  
Since 1 September snowfall 0.0 0.0  
Snow Depth 0.00 in    
Sea Level Pressure  
Sea Level Pressure 29.82 in    
Wind  
Wind Speed 9 mph (SE)    
Max Wind Speed 17 mph    
Max Gust Speed 22 mph    
Visibility 4 miles    
Events Rain    
T = Trace of Precipitation, MM = Missing Value Source: NWS Daily Summary

Daily Weather History Graph

Daily Weather History Graph

Search for Another Location

Airport or City:

Trip Planner

Search our weather history database for the weather conditions in past years. The results will help you decide how hot, cold, wet, or windy it might be!

Date:

Astronomy

Sep. 18, 2013 Rise Set
Actual Time 6:55 AM CDT 7:17 PM CDT
Civil Twilight 6:26 AM CDT 7:46 PM CDT
Nautical Twilight 5:51 AM CDT 8:21 PM CDT
Astronomical Twilight 5:15 AM CDT 8:56 PM CDT
Moon 6:40 PM CDT (9/18) 5:58 AM CDT (9/18)
Length of Visible Light 13h 20m
Length of Day
12h 21m
Waxing Gibbous, 99% of the Moon is Illuminated
Sep 18
Waxing Gibbous
Sep 19
Full
Sep 26
Last Quarter
Oct 4
New
Oct 11
First Quarter

Hourly Weather History & Observations

Time (CDT) Temp. Dew Point Humidity Pressure Visibility Wind Dir Wind Speed Gust Speed Precip Events Conditions
12:53 AM 60.1 °F 59.0 °F 96% 29.94 in 2.5 mi SE 6.9 mph - 0.00 in   Light Drizzle
1:42 AM 60.8 °F 60.8 °F 100% 29.93 in 1.8 mi SE 5.8 mph - 0.01 in Rain Light Rain
1:53 AM 60.1 °F 60.1 °F 100% 29.92 in 2.0 mi SE 5.8 mph - 0.02 in Rain Light Rain
2:24 AM 60.8 °F 60.8 °F 100% 29.91 in 4.0 mi SE 5.8 mph - 0.00 in   Light Drizzle
2:39 AM 60.8 °F 60.8 °F 100% 29.91 in 5.0 mi SE 6.9 mph - 0.00 in   Light Drizzle
2:53 AM 61.0 °F 60.1 °F 97% 29.90 in 5.0 mi ESE 6.9 mph - 0.00 in   Overcast
3:53 AM 62.1 °F 61.0 °F 96% 29.87 in 3.0 mi SE 8.1 mph - N/A   Overcast
4:04 AM 62.6 °F 60.8 °F 94% 29.88 in 2.0 mi SE 6.9 mph - N/A   Overcast
4:10 AM 62.6 °F 60.8 °F 94% 29.88 in 1.8 mi SE 4.6 mph - 0.00 in   Light Drizzle
4:31 AM 62.6 °F 60.8 °F 94% 29.87 in 1.2 mi ESE 6.9 mph - 0.00 in   Light Drizzle
4:53 AM 62.1 °F 62.1 °F 100% 29.85 in 1.0 mi ESE 8.1 mph - 0.00 in   Light Drizzle
5:38 AM 62.6 °F 62.6 °F 100% 29.84 in 1.5 mi SE 5.8 mph - 0.10 in Rain Light Rain
5:50 AM 62.6 °F 62.6 °F 100% 29.84 in 1.2 mi SE 3.5 mph - 0.10 in   Light Drizzle
5:53 AM 63.0 °F 63.0 °F 100% 29.84 in 1.5 mi SE 5.8 mph - 0.10 in   Light Drizzle
6:11 AM 62.6 °F 62.6 °F 100% 29.85 in 2.5 mi SSE 4.6 mph - 0.01 in   Light Drizzle
6:28 AM 62.6 °F 62.6 °F 100% 29.85 in 3.0 mi SE 5.8 mph - 0.01 in   Overcast
6:38 AM 64.4 °F 62.6 °F 94% 29.85 in 3.0 mi SE 6.9 mph - 0.01 in   Overcast
6:49 AM 64.4 °F 62.6 °F 94% 29.85 in 2.5 mi SE 8.1 mph - 0.01 in   Light Drizzle
6:53 AM 64.0 °F 63.0 °F 96% 29.84 in 2.0 mi SE 8.1 mph - 0.01 in   Light Drizzle
7:02 AM 64.4 °F 64.4 °F 100% 29.84 in 1.5 mi SSE 8.1 mph - 0.00 in   Light Drizzle
7:45 AM 64.4 °F 64.4 °F 100% 29.84 in 2.5 mi SSE 6.9 mph - 0.01 in   Light Drizzle
7:53 AM 64.0 °F 64.0 °F 100% 29.84 in 3.0 mi SSE 6.9 mph - 0.01 in   Light Drizzle
8:53 AM 64.9 °F 64.0 °F 97% 29.84 in 2.0 mi SSE 9.2 mph - N/A   Overcast
9:04 AM 64.4 °F 64.4 °F 100% 29.84 in 1.8 mi SSE 8.1 mph - N/A   Overcast
9:16 AM 66.2 °F 64.4 °F 94% 29.84 in 2.0 mi SSE 6.9 mph - N/A   Overcast
9:32 AM 66.2 °F 64.4 °F 94% 29.84 in 3.0 mi SSE 9.2 mph - N/A   Overcast
9:53 AM 66.9 °F 64.9 °F 93% 29.83 in 3.0 mi SSE 9.2 mph - N/A   Overcast
10:53 AM 69.1 °F 66.0 °F 90% 29.82 in 4.0 mi South 6.9 mph - N/A   Overcast
11:53 AM 72.0 °F 66.9 °F 84% 29.81 in 4.0 mi SSE 6.9 mph - N/A   Haze
12:40 PM 73.4 °F 68.0 °F 83% 29.79 in 5.0 mi SSE 8.1 mph - N/A   Haze
12:53 PM 73.0 °F 66.9 °F 81% 29.78 in 5.0 mi SSE 8.1 mph - N/A   Haze
1:37 PM 73.4 °F 66.2 °F 78% 29.77 in 6.0 mi South 12.7 mph - N/A   Haze
1:53 PM 73.9 °F 66.9 °F 79% 29.76 in 6.0 mi South 9.2 mph - N/A   Haze
2:53 PM 73.0 °F 66.0 °F 79% 29.75 in 7.0 mi SSE 10.4 mph - N/A   Overcast
3:21 PM 73.4 °F 66.2 °F 78% 29.75 in 8.0 mi SSE 9.2 mph - N/A   Overcast
3:53 PM 72.0 °F 66.9 °F 84% 29.74 in 6.0 mi SE 10.4 mph - N/A   Haze
4:53 PM 73.0 °F 66.9 °F 81% 29.73 in 6.0 mi SSE 12.7 mph 18.4 mph N/A   Haze
5:53 PM 73.0 °F 66.9 °F 81% 29.72 in 6.0 mi SE 12.7 mph - N/A   Haze
6:18 PM 71.6 °F 66.2 °F 83% 29.72 in 6.0 mi SE 11.5 mph - N/A   Haze
6:53 PM 72.0 °F 68.0 °F 87% 29.72 in 6.0 mi SE 9.2 mph - N/A   Scattered Clouds
7:53 PM 72.0 °F 66.9 °F 84% 29.72 in 6.0 mi ESE 9.2 mph - N/A   Haze
8:53 PM 70.0 °F 68.0 °F 93% 29.72 in 6.0 mi ESE 9.2 mph - N/A   Scattered Clouds
9:53 PM 71.1 °F 68.0 °F 90% 29.72 in 6.0 mi SE 5.8 mph - N/A   Scattered Clouds
10:53 PM 73.0 °F 69.1 °F 87% 29.70 in 7.0 mi SSE 10.4 mph - N/A   Scattered Clouds
11:53 PM 75.0 °F 69.1 °F 82% 29.70 in 7.0 mi SSE 10.4 mph - N/A   Partly Cloudy